Location: Bermeries
(50.2863°N, 3.7551°E)
Time: 12:31:59
(UTC+00:00)

Cosmos 1400 Rocket - Pass Details

Date: 23 May 2024
Orbit: 501 x 544 km, 81.2° (Epoch: 16 June)

Event Time Altitude Azimuth Distance (km) Brightness Sun altitude
Exits shadow 00:32:27 44° 201° (SSW) 758 3.0 -18.2°
Maximum altitude 00:33:39 81° 282° (WNW) 558 2.7 -18.2°
Drops below altitude 10° 00:37:40 10° 11° (N) 1,817 6.8 -18.0°
Sets 00:39:50 0° 12° (NNE) 2,709 8.1 -17.9°
